| time (UTC) | temp F | wind direction | speed knots | gust knots | rain 1hr in | rain 24hr in | rain mn in | humidity % | barometer mb |
| 20260831052818 | 83 | 253 | 6.1 | 12.2 | 0.00 | 0.00 | 0.00 | 64 | 1008.9 |
| 20260831051018 | 82 | 229 | 6.1 | 18.2 | 0.00 | 0.00 | 0.00 | 65 | 1009.6 |
| 20260831045218 | 85 | 213 | 7.0 | 17.4 | 0.00 | 0.00 | 0.00 | 56 | 1010.0 |
| 20260831044318 | 86 | 198 | 9.6 | 18.2 | 0.00 | 0.00 | 0.00 | 55 | 1009.7 |
| 20260831043418 | 87 | 201 | 8.7 | 22.6 | 0.00 | 0.00 | 0.00 | 52 | 1009.3 |
| 20260831041618 | 89 | 202 | 7.8 | 18.2 | 0.00 | 0.00 | 0.00 | 46 | 1009.0 |
| 20260831040718 | 91 | 201 | 6.1 | 19.1 | 0.00 | 0.00 | 0.00 | 46 | 1008.9 |
| 20260831035818 | 92 | 201 | 7.0 | 19.1 | 0.00 | 0.00 | 0.00 | 45 | 1008.6 |
| 20260831034918 | 94 | 206 | 6.1 | 17.4 | 0.00 | 0.00 | 0.00 | 41 | 1008.6 |
| 20260831033118 | 100 | 306 | 0.9 | 4.3 | 0.00 | 0.00 | 0.00 | 32 | 1007.6 |
| 20260831032218 | 100 | 344 | 0.9 | 3.5 | 0.00 | 0.00 | 0.00 | 32 | 1007.5 |
| 20260831031318 | 100 | 341 | 0.9 | 2.6 | 0.00 | 0.00 | 0.00 | 32 | 1007.4 |
| 20260831030418 | 101 | 327 | 1.7 | 4.3 | 0.00 | 0.00 | 0.00 | 32 | 1007.3 |
| 20260831025518 | 101 | 302 | 2.6 | 5.2 | 0.00 | 0.00 | 0.00 | 32 | 1007.1 |
| 20260831024618 | 101 | 292 | 2.6 | 7.8 | 0.00 | 0.00 | 0.00 | 32 | 1007.2 |
| 20260831023718 | 101 | 301 | 1.7 | 7.0 | 0.00 | 0.00 | 0.00 | 32 | 1006.9 |
| 20260831022818 | 101 | 271 | 2.6 | 5.2 | 0.00 | 0.00 | 0.00 | 32 | 1006.8 |
| 20260831021018 | 101 | 304 | 1.7 | 4.3 | 0.00 | 0.00 | 0.00 | 31 | 1006.3 |
| 20260831020118 | 102 | 254 | 2.6 | 4.3 | 0.00 | 0.00 | 0.00 | 31 | 1006.3 |
| 20260831015218 | 102 | 267 | 3.5 | 7.0 | 0.00 | 0.00 | 0.00 | 31 | 1006.2 |
| 20260831014318 | 102 | 260 | 2.6 | 7.0 | 0.00 | 0.00 | 0.00 | 30 | 1006.0 |
| 20260831013418 | 102 | 297 | 2.6 | 6.1 | 0.00 | 0.00 | 0.00 | 30 | 1005.8 |
| 20260831012518 | 103 | 308 | 1.7 | 8.7 | 0.00 | 0.00 | 0.00 | 30 | 1005.8 |
| 20260831011618 | 103 | 285 | 0.9 | 2.6 | 0.00 | 0.00 | 0.00 | 30 | 1005.8 |
| 20260831010718 | 103 | 281 | 0.9 | 3.5 | 0.00 | 0.00 | 0.00 | 30 | 1005.9 |
| 20260831004018 | 104 | 255 | 3.5 | 7.0 | 0.00 | 0.00 | 0.00 | 29 | 1006.2 |
| 20260831003118 | 104 | 262 | 3.5 | 11.3 | 0.00 | 0.00 | 0.00 | 29 | 1006.2 |
| 20260831002218 | 105 | 280 | 1.7 | 6.1 | 0.00 | 0.00 | 0.00 | 28 | 1006.1 |
| 20260831001318 | 104 | 44 | 1.7 | 4.3 | 0.00 | 0.00 | 0.00 | 28 | 1006.1 |
| 20260831000417 | 104 | 81 | 1.7 | 3.5 | 0.00 | 0.00 | 0.00 | 28 | 1006.3 |
| 20260830235517 | 104 | 358 | 1.7 | 6.1 | 0.00 | 0.00 | 0.00 | 28 | 1006.4 |
| 20260830234617 | 106 | 254 | 2.6 | 7.0 | 0.00 | 0.00 | 0.00 | 28 | 1006.4 |
| 20260830233718 | 106 | 263 | 4.3 | 7.8 | 0.00 | 0.00 | 0.00 | 28 | 1006.5 |
| 20260830232817 | 106 | 300 | 4.3 | 9.6 | 0.00 | 0.00 | 0.00 | 27 | 1006.6 |
| 20260830231918 | 106 | 293 | 5.2 | 9.6 | 0.00 | 0.00 | 0.00 | 27 | 1006.7 |
| 20260830231018 | 106 | 311 | 3.5 | 9.6 | 0.00 | 0.00 | 0.00 | 27 | 1006.8 |
| 20260830225218 | 107 | 303 | 2.6 | 7.8 | 0.00 | 0.00 | 0.00 | 27 | 1007.1 |
| 20260830223417 | 106 | 237 | 2.6 | 7.0 | 0.00 | 0.00 | 0.00 | 28 | 1007.5 |
| 20260830222517 | 107 | 259 | 3.5 | 8.7 | 0.00 | 0.00 | 0.00 | 27 | 1007.6 |
| 20260830221617 | 107 | 280 | 2.6 | 10.4 | 0.00 | 0.00 | 0.00 | 27 | 1007.7 |
| 20260830220717 | 106 | 340 | 2.6 | 7.0 | 0.00 | 0.00 | 0.00 | 27 | 1007.9 |
| 20260830215817 | 107 | 330 | 2.6 | 7.0 | 0.00 | 0.00 | 0.00 | 27 | 1008.2 |
| 20260830214917 | 106 | 239 | 2.6 | 7.8 | 0.00 | 0.00 | 0.00 | 27 | 1008.4 |
| 20260830213117 | 106 | 359 | 2.6 | 7.0 | 0.00 | 0.00 | 0.00 | 27 | 1008.9 |
| 20260830212218 | 105 | 91 | 3.5 | 8.7 | 0.00 | 0.00 | 0.00 | 28 | 1008.9 |
| 20260830211317 | 105 | 138 | 2.6 | 8.7 | 0.00 | 0.00 | 0.00 | 28 | 1009.1 |
| 20260830210417 | 105 | 176 | 2.6 | 6.1 | 0.00 | 0.00 | 0.00 | 28 | 1009.3 |
| 20260830205517 | 105 | 196 | 2.6 | 7.0 | 0.00 | 0.00 | 0.00 | 28 | 1009.4 |
| 20260830204617 | 106 | 253 | 2.6 | 7.0 | 0.00 | 0.00 | 0.00 | 28 | 1009.7 |
| 20260830203717 | 106 | 226 | 2.6 | 7.0 | 0.00 | 0.00 | 0.00 | 29 | 1009.9 |
| 20260830202817 | 104 | 161 | 2.6 | 9.6 | 0.00 | 0.00 | 0.00 | 30 | 1010.0 |
| 20260830201917 | 105 | 49 | 2.6 | 7.0 | 0.00 | 0.00 | 0.00 | 30 | 1010.2 |
| 20260830200117 | 104 | 272 | 2.6 | 7.8 | 0.00 | 0.00 | 0.00 | 30 | 1010.5 |
| 20260830195217 | 103 | 163 | 2.6 | 8.7 | 0.00 | 0.00 | 0.00 | 31 | 1010.7 |
| 20260830194317 | 103 | 164 | 2.6 | 9.6 | 0.00 | 0.00 | 0.00 | 31 | 1010.7 |
| 20260830193417 | 103 | 142 | 2.6 | 7.8 | 0.00 | 0.00 | 0.00 | 30 | 1010.8 |
| 20260830192517 | 103 | 166 | 3.5 | 8.7 | 0.00 | 0.00 | 0.00 | 31 | 1010.9 |
| 20260830185817 | 101 | 126 | 2.6 | 9.6 | 0.00 | 0.00 | 0.00 | 32 | 1011.4 |
| 20260830184917 | 101 | 208 | 2.6 | 7.8 | 0.00 | 0.00 | 0.00 | 32 | 1011.7 |
| 20260830184017 | 101 | 172 | 2.6 | 8.7 | 0.00 | 0.00 | 0.00 | 33 | 1011.7 |
| 20260830183117 | 101 | 138 | 3.5 | 8.7 | 0.00 | 0.00 | 0.00 | 33 | 1011.9 |
| 20260830181317 | 101 | 168 | 3.5 | 13.0 | 0.00 | 0.00 | 0.00 | 33 | 1012.3 |
| 20260830180417 | 100 | 178 | 5.2 | 10.4 | 0.00 | 0.00 | 0.00 | 34 | 1012.3 |
| 20260830174617 | 100 | 179 | 3.5 | 12.2 | 0.00 | 0.00 | 0.00 | 34 | 1012.6 |
| 20260830171917 | 99 | 172 | 3.5 | 10.4 | 0.00 | 0.00 | 0.00 | 35 | 1012.7 |
| 20260830171017 | 97 | 175 | 4.3 | 8.7 | 0.00 | 0.00 | 0.00 | 36 | 1012.6 |
| 20260830170117 | 97 | 191 | 5.2 | 12.2 | 0.00 | 0.00 | 0.00 | 37 | 1012.7 |
| 20260830165217 | 96 | 178 | 4.3 | 10.4 | 0.00 | 0.00 | 0.00 | 38 | 1012.6 |
| 20260830164317 | 96 | 155 | 4.3 | 9.6 | 0.00 | 0.00 | 0.00 | 38 | 1012.6 |
| 20260830162517 | 96 | 146 | 2.6 | 10.4 | 0.00 | 0.00 | 0.00 | 39 | 1012.5 |
| 20260830161617 | 95 | 140 | 2.6 | 7.8 | 0.00 | 0.00 | 0.00 | 39 | 1012.6 |
| 20260830160717 | 94 | 118 | 3.5 | 8.7 | 0.00 | 0.00 | 0.00 | 41 | 1012.6 |
| 20260830154917 | 93 | 131 | 3.5 | 8.7 | 0.00 | 0.00 | 0.00 | 41 | 1012.5 |
| 20260830154017 | 93 | 145 | 2.6 | 10.4 | 0.00 | 0.00 | 0.00 | 40 | 1012.5 |
| 20260830153117 | 92 | 150 | 2.6 | 7.8 | 0.00 | 0.00 | 0.00 | 42 | 1012.6 |
| 20260830152217 | 92 | 147 | 2.6 | 7.8 | 0.00 | 0.00 | 0.00 | 42 | 1012.6 |
| 20260830151317 | 91 | 136 | 2.6 | 7.8 | 0.00 | 0.00 | 0.00 | 43 | 1012.6 |
| 20260830150417 | 91 | 135 | 2.6 | 8.7 | 0.00 | 0.00 | 0.00 | 44 | 1012.6 |
| 20260830145517 | 90 | 113 | 3.5 | 7.0 | 0.00 | 0.00 | 0.00 | 45 | 1012.8 |
| 20260830144617 | 89 | 104 | 3.5 | 8.7 | 0.00 | 0.00 | 0.00 | 46 | 1012.8 |
| 20260830143717 | 89 | 103 | 3.5 | 8.7 | 0.00 | 0.00 | 0.00 | 47 | 1012.7 |
| 20260830142817 | 88 | 113 | 3.5 | 9.6 | 0.00 | 0.00 | 0.00 | 48 | 1012.7 |
| 20260830141917 | 87 | 104 | 3.5 | 7.8 | 0.00 | 0.00 | 0.00 | 48 | 1012.5 |
| 20260830141017 | 86 | 103 | 3.5 | 10.4 | 0.00 | 0.00 | 0.00 | 50 | 1012.4 |
| 20260830140117 | 86 | 96 | 4.3 | 10.4 | 0.00 | 0.00 | 0.00 | 51 | 1012.3 |
| 20260830135217 | 86 | 99 | 4.3 | 10.4 | 0.00 | 0.00 | 0.00 | 50 | 1012.3 |
| 20260830134317 | 86 | 98 | 3.5 | 9.6 | 0.00 | 0.00 | 0.00 | 49 | 1012.3 |
| 20260830132517 | 86 | 107 | 0.9 | 6.1 | 0.00 | 0.00 | 0.00 | 48 | 1012.2 |
| 20260830131617 | 86 | 113 | 0.9 | 6.1 | 0.00 | 0.00 | 0.00 | 48 | 1012.0 |
| 20260830130717 | 87 | 108 | 1.7 | 6.1 | 0.00 | 0.00 | 0.00 | 47 | 1011.8 |
| 20260830125817 | 87 | 125 | 2.6 | 8.7 | 0.00 | 0.00 | 0.00 | 47 | 1011.5 |
| 20260830124917 | 87 | 102 | 3.5 | 9.6 | 0.00 | 0.00 | 0.00 | 47 | 1011.3 |
| 20260830124017 | 87 | 99 | 3.5 | 8.7 | 0.00 | 0.00 | 0.00 | 47 | 1011.1 |
| 20260830123117 | 87 | 103 | 1.7 | 8.7 | 0.00 | 0.00 | 0.00 | 46 | 1011.0 |
| 20260830121316 | 87 | 94 | 0.9 | 7.0 | 0.00 | 0.00 | 0.00 | 46 | 1010.8 |
| 20260830120417 | 87 | 115 | 0.0 | 3.5 | 0.00 | 0.00 | 0.00 | 47 | 1010.7 |
| 20260830114616 | 86 | 175 | 0.0 | 0.9 | 0.00 | 0.00 | 0.00 | 50 | 1010.5 |
| 20260830113717 | 86 | 178 | 0.0 | 2.6 | 0.00 | 0.00 | 0.00 | 50 | 1010.6 |
| 20260830112816 | 86 | 189 | 0.9 | 3.5 | 0.00 | 0.00 | 0.00 | 51 | 1010.7 |
| 20260830111917 | 86 | 163 | 0.9 | 4.3 | 0.00 | 0.00 | 0.00 | 51 | 1010.6 |
| 20260830111016 | 86 | 164 | 0.9 | 5.2 | 0.00 | 0.00 | 0.00 | 51 | 1010.5 |
| 20260830110117 | 87 | 160 | 0.9 | 5.2 | 0.00 | 0.00 | 0.00 | 50 | 1010.5 |
| 20260830105217 | 87 | 73 | 0.9 | 5.2 | 0.00 | 0.00 | 0.00 | 50 | 1010.5 |
| 20260830104316 | 87 | 72 | 0.9 | 2.6 | 0.00 | 0.00 | 0.00 | 50 | 1010.6 |
| 20260830102516 | 88 | 94 | 0.9 | 4.3 | 0.00 | 0.00 | 0.00 | 49 | 1010.7 |
| 20260830101617 | 88 | 78 | 1.7 | 4.3 | 0.00 | 0.00 | 0.00 | 49 | 1010.5 |
| 20260830100716 | 88 | 89 | 2.6 | 8.7 | 0.00 | 0.00 | 0.00 | 48 | 1010.3 |
| 20260830094917 | 89 | 62 | 3.5 | 11.3 | 0.00 | 0.00 | 0.00 | 47 | 1010.0 |
| 20260830094016 | 89 | 56 | 2.6 | 10.4 | 0.00 | 0.00 | 0.00 | 46 | 1009.9 |
| 20260830093116 | 89 | 54 | 1.7 | 8.7 | 0.00 | 0.00 | 0.00 | 46 | 1009.8 |
| 20260830092216 | 89 | 42 | 2.6 | 7.0 | 0.00 | 0.00 | 0.00 | 45 | 1009.7 |
| 20260830091316 | 90 | 56 | 1.7 | 7.8 | 0.00 | 0.00 | 0.00 | 45 | 1009.7 |
| 20260830090416 | 90 | 67 | 2.6 | 7.8 | 0.00 | 0.00 | 0.00 | 44 | 1009.7 |
| 20260830085516 | 89 | 62 | 1.7 | 7.0 | 0.00 | 0.00 | 0.00 | 44 | 1009.7 |
| 20260830084616 | 89 | 47 | 1.7 | 7.8 | 0.00 | 0.00 | 0.00 | 44 | 1009.8 |
| 20260830083716 | 89 | 44 | 2.6 | 7.0 | 0.00 | 0.00 | 0.00 | 45 | 1009.8 |
| 20260830082816 | 89 | 32 | 1.7 | 7.8 | 0.00 | 0.00 | 0.00 | 45 | 1009.8 |
| 20260830081916 | 89 | 356 | 1.7 | 5.2 | 0.00 | 0.00 | 0.00 | 44 | 1009.9 |
| 20260830081016 | 90 | 6 | 0.9 | 7.8 | 0.00 | 0.00 | 0.00 | 43 | 1009.7 |
| 20260830080116 | 91 | 342 | 0.0 | 3.5 | 0.00 | 0.00 | 0.00 | 41 | 1009.5 |
| 20260830075216 | 91 | 0 | 0.0 | 0.0 | 0.00 | 0.00 | 0.00 | 40 | 1009.4 |
| 20260830074316 | 91 | 82 | 0.9 | 2.6 | 0.00 | 0.00 | 0.00 | 40 | 1009.4 |
| 20260830073416 | 91 | 97 | 2.6 | 7.0 | 0.00 | 0.00 | 0.00 | 40 | 1009.2 |
| 20260830072517 | 91 | 99 | 3.5 | 7.8 | 0.00 | 0.00 | 0.00 | 41 | 1009.3 |
| 20260830071616 | 90 | 96 | 6.1 | 10.4 | 0.00 | 0.00 | 0.00 | 41 | 1009.3 |
| 20260830065816 | 89 | 63 | 2.6 | 7.8 | 0.00 | 0.00 | 0.00 | 44 | 1009.8 |
| 20260830064016 | 88 | 91 | 6.1 | 11.3 | 0.00 | 0.00 | 0.00 | 46 | 1010.3 |
| 20260830063116 | 88 | 105 | 7.0 | 15.6 | 0.00 | 0.00 | 0.00 | 47 | 1010.0 |
| 20260830061316 | 89 | 118 | 10.4 | 20.0 | 0.00 | 0.00 | 0.00 | 47 | 1009.8 |
| 20260830055516 | 90 | 114 | 8.7 | 15.6 | 0.00 | 0.00 | 0.00 | 46 | 1009.9 |
| 20260830054616 | 91 | 110 | 9.6 | 20.0 | 0.00 | 0.00 | 0.00 | 45 | 1010.0 |